Find Starlink 11701

NORAD ID: 63760 Int'l Des: 2025-089 Owner: SPXS Country: US Constellation: starlink operational
LEOCIRCULAR

現在のビュー

3D地球を読み込み中...

About Starlink 11701

Starlink 11701 (NORAD 63760) is a starlink constellation satellite (v2 mini d2c) launched Apr 29, 2025 by SPXS of US. It operates in LEO, CIRCULAR orbit with a mass of 960.00 kg.

Starlink 11701について

説明を読み込み中...

次回通過

Passes for default location (London). Set your location on the main map for personalized predictions.

高度履歴

Loading altitude history...

軌道要素

1 63760U 25089K 26171.33940573 .00198914 00000-0 15145-2 0 9997
2 63760 42.9997 33.1459 0000655 353.8836 6.2024 15.70877369 66280
Epoch: Jun 20, 2026 • Age: 40 hours

現在のステータス

高度 354.7 km
速度 7.70 km/s
衛星直下点 -0.71°S, 75.15°W
打ち上げ日 Apr 29, 2025
運用期間 1.1 years
タイプ internet

技術仕様

分類 Payload
質量 960.00 kg
乾燥質量 910.00 kg
総質量 960.00 kg
長さ 0.30 m
直径 4.10 m
スパン 29.00 m
形状 Box + pan
製造者 SPXS
バスタイプ Starlink V2MD
フェーズステータス In Orbit
所有者/国 SPXS/US

Most Searched